Mountain Home, Arkansas, United States (72653)
Lat: 36.34N, Lon: 92.39W
Wx Zone: ARZ005
Local Info
Past Weather Observations for Saturday, March 28, 2015

NOTE: This archive is for the closest National Weather Service station to Mountain Home. Information may differ from the station used for current weather conditions.

Click here for Long-term Archive

Time Weather Temperature Dewpoint Humidity Pressure Winds Precip Visibility
23:53
Clear
34°F / 1°C 30°F / -1°C 87% 30.24 in
(1024 mb)
SE 5.8 mph
(SE 9 kph)
- 7SM
22:53
Clear
34°F / 1°C 30°F / -1°C 87% 30.24 in
(1024 mb)
SE 6.9 mph
(SE 11 kph)
- 8SM
21:53
Clear
34°F / 1°C 30°F / -1°C 87% 30.24 in
(1024 mb)
SE 8.1 mph
(SE 13 kph)
- 9SM
20:53
Partly Cloudy
36°F / 2°C 30°F / -1°C 81% 30.24 in
(1024 mb)
SE 8.1 mph
(SE 13 kph)
- 9SM
19:53
Overcast
36°F / 2°C 30°F / -1°C 81% 30.24 in
(1024 mb)
SE 10.4 mph
(SE 17 kph)
- 9SM
18:53
Overcast
37°F / 3°C 32°F / 0°C 81% 30.24 in
(1024 mb)
ESE 10.4 mph
(ESE 17 kph)
- 9SM
17:53
Overcast
37°F / 3°C 32°F / 0°C 81% 30.21 in
(1023 mb)
ESE 13.8 mph
(ESE 22 kph)
- 8SM
16:53
Overcast
37°F / 3°C 30°F / -1°C 75% 30.21 in
(1023 mb)
E 11.5 mph
(E 19 kph)
- 9SM
15:53
Overcast
37°F / 3°C 30°F / -1°C 75% 30.21 in
(1023 mb)
SE 12.7 mph
(SE 20 kph)
- 9SM
14:53
Overcast
37°F / 3°C 30°F / -1°C 75% 30.21 in
(1023 mb)
ESE 11.5 mph
(ESE 19 kph)
- 9SM
13:53
Overcast
37°F / 3°C 28°F / -2°C 70% 30.21 in
(1023 mb)
SE 12.7 mph
(SE 20 kph)
- 9SM
12:53
Overcast
37°F / 3°C 30°F / -1°C 75% 30.24 in
(1024 mb)
ESE 12.7 mph
(ESE 20 kph)
- 8SM
11:53
Overcast
37°F / 3°C 30°F / -1°C 75% 30.24 in
(1024 mb)
SE 8.1 mph
(SE 13 kph)
- 8SM
10:53
Overcast
36°F / 2°C 28°F / -2°C 75% 30.27 in
(1025 mb)
SE 10.4 mph
(SE 17 kph)
0.00 in
(0.00 mm)
8SM
09:53
Overcast
Light Snow
37°F / 3°C 28°F / -2°C 70% 30.24 in
(1024 mb)
SE 9.2 mph
(SE 15 kph)
0.00 in
(0.00 mm)
4SM
08:53
Overcast
37°F / 3°C 27°F / -3°C 65% 30.24 in
(1024 mb)
SE 11.5 mph
(SE 19 kph)
- 9SM
07:53
Overcast
37°F / 3°C 27°F / -3°C 65% 30.21 in
(1023 mb)
SE 10.4 mph
(SE 17 kph)
- 9SM
06:53
Overcast
37°F / 3°C 30°F / -1°C 75% 30.18 in
(1022 mb)
SE 9.2 mph
(SE 15 kph)
- 9SM
05:53
Overcast
37°F / 3°C 28°F / -2°C 70% 30.18 in
(1022 mb)
ESE 6.9 mph
(ESE 11 kph)
- 10SM
04:53
Overcast
37°F / 3°C 28°F / -2°C 70% 30.15 in
(1021 mb)
SE 9.2 mph
(SE 15 kph)
- 10SM
03:53
Overcast
37°F / 3°C 27°F / -3°C 65% 30.12 in
(1020 mb)
SE 9.2 mph
(SE 15 kph)
- 10SM
02:53
Partly Cloudy
39°F / 4°C 25°F / -4°C 56% 30.12 in
(1020 mb)
SE 5.8 mph
(SE 9 kph)
- 10SM
01:53
Overcast
39°F / 4°C 27°F / -3°C 61% 30.12 in
(1020 mb)
ESE 5.8 mph
(ESE 9 kph)
- 10SM
00:53
Overcast
39°F / 4°C 27°F / -3°C 61% 30.15 in
(1021 mb)
E 3.5 mph
(E 6 kph)
- 10SM
Time Weather Temperature Dewpoint Humidity Pressure Winds Precip Visibility


Weather for websites

WeatherForYou.com, LLC is not responsible for any damages or problems caused by this service. Current weather conditions are obtained from the closest station including government and personal stations which may have varying degrees of accuracy. Weather forecasts are derived from the NOAA NDFD. Like all things, this site belongs to Jesus Christ... He just trusts me to maintain it. If you have any questions or comments email webmaster@weatherforyou.com

Copyright © 2015, WeatherForYou.com LLC. All rights reserved.